Theta_e
324 319 315 314 311 308 310 315 318 318 314 311 310 310 308 307 307 307 307 308 311 313 315 315 315 313 308 305 305 305 305 305 304 306 308 309 311 312 312 314 318 319
324 321 319 315 312 312 314 316 318 316 312 310 309 308 307 307 306 306 305 305 307 309 312 313 312 309 305 304 304 304 304 304 304 304 305 307 308 308 309 313 318 318
324 323 320 317 315 317 319 318 317 314 313 312 310 307 306 306 305 305 305 304 305 306 308 308 307 306 305 305 305 305 305 305 304 304 304 305 305 305 305 309 315 317
324 322 321 320 319 321 322 319 316 316 316 314 310 307 306 305 305 305 305 305 306 306 306 307 307 307 307 307 307 307 307 307 307 306 306 306 305 305 304 304 308 313
324 322 321 321 321 322 322 318 317 318 317 315 311 307 305 304 305 305 305 307 308 308 308 308 308 308 308 308 308 308 308 308 308 308 308 308 307 307 306 305 305 307
324 321 321 322 321 322 321 318 319 319 318 315 311 306 305 305 305 306 307 308 308 309 309 309 309 310 310 311 311 311 312 313 313 312 311 310 310 310 309 309 308 306
324 323 323 322 322 321 320 319 320 320 318 316 310 305 305 306 306 307 307 308 309 309 309 310 310 311 313 315 316 316 317 318 318 317 315 314 315 314 313 312 310 309
324 324 324 323 322 321 319 320 320 319 319 315 309 305 306 307 307 308 308 308 309 308 309 310 310 311 313 317 318 318 320 320 320 319 317 317 317 317 316 315 314 313
325 325 324 323 322 321 320 320 321 320 319 315 309 305 306 308 308 308 308 308 308 309 309 309 310 312 317 319 318 319 320 321 321 321 319 318 319 318 317 317 317 316
326 325 325 324 322 321 320 320 321 321 319 315 310 306 306 308 309 309 309 309 310 310 310 311 312 315 320 322 319 319 320 319 319 320 319 319 320 319 319 318 318 318
324 324 325 325 323 320 320 321 322 321 320 318 313 309 308 310 310 310 311 313 313 314 315 316 317 318 320 323 321 319 319 319 320 320 319 320 320 320 320 319 319 318
323 323 323 324 324 322 320 320 319 318 319 319 317 312 310 313 314 312 313 316 317 318 319 319 320 320 321 322 322 321 320 320 320 320 320 320 320 320 320 320 320 319
322 322 321 321 322 322 319 317 315 314 318 320 319 316 313 315 318 315 315 318 319 319 320 320 321 321 321 320 321 321 321 320 320 319 319 318 319 319 319 319 320 320
321 321 320 319 320 320 318 316 315 315 318 318 318 318 316 316 319 317 317 319 319 319 320 320 320 320 320 320 320 319 319 320 320 318 317 317 317 318 318 318 319 319
321 322 321 319 318 318 317 317 317 319 319 318 318 319 317 316 318 318 318 319 319 319 319 319 319 320 320 320 320 317 317 318 318 317 316 316 316 317 317 316 317 318
321 321 320 319 318 318 319 319 319 320 320 319 319 319 318 317 318 318 318 318 319 319 319 319 319 319 319 320 319 317 316 316 316 315 315 316 316 317 317 316 316 317
321 321 320 319 318 318 318 317 317 319 319 318 318 319 319 318 317 318 318 318 318 319 319 320 320 319 319 319 318 317 316 316 316 315 315 315 316 316 316 315 316 316
322 322 321 320 320 319 318 318 319 319 319 318 317 318 319 318 318 318 318 318 319 319 319 319 320 320 319 318 317 317 316 315 315 314 315 316 315 316 316 316 315 316
322 321 321 320 320 319 318 320 321 320 319 318 316 316 317 318 318 318 319 319 319 318 319 320 320 319 318 317 316 316 316 314 314 315 316 316 316 316 316 316 316 315
319 320 320 320 320 318 317 319 320 320 319 317 317 317 318 319 320 319 319 319 319 319 320 320 319 318 316 316 316 315 315 314 315 316 317 316 316 316 315 315 314 314
318 319 320 319 319 320 320 320 321 321 318 317 319 320 320 319 319 319 319 319 319 320 319 318 318 316 315 315 315 315 314 315 316 317 316 315 314 315 316 315 311 309
317 318 319 319 319 320 320 320 321 321 319 319 319 320 321 320 318 318 319 319 319 318 318 317 316 315 315 316 315 314 315 315 315 316 316 315 311 309 310 311 308 305
317 318 318 318 318 318 318 318 319 320 319 318 318 319 321 320 319 318 318 319 318 317 317 316 315 316 316 315 314 314 313 313 314 314 314 313 309 306 305 306 306 305
315 317 317 317 317 317 317 317 317 318 318 318 318 319 319 319 319 318 317 317 316 315 314 313 313 314 313 312 311 312 312 313 314 313 312 312 311 309 307 306 305 305
312 314 315 316 316 316 315 316 316 317 317 317 317 317 317 317 317 316 316 315 314 312 310 307 306 307 306 306 307 308 310 313 315 314 313 313 313 311 309 307 307 306
311 312 312 314 315 315 315 315 315 315 315 315 315 314 314 314 314 314 313 312 311 310 307 304 303 302 301 302 303 304 309 314 315 313 313 314 313 312 309 308 308 307
Wind_Speed
19 18 17 15 15 17 18 18 16 13 12 14 15 16 15 14 12 12 14 15 16 17 17 15 12 11 11 12 13 13 13 13 13 13 12 12 13 14 15 17 18 18
19 18 16 15 16 17 18 17 15 13 13 14 14 14 13 11 11 12 14 16 16 17 17 15 13 12 14 15 15 14 14 14 15 14 13 13 12 12 14 17 19 18
19 17 16 16 17 18 17 15 13 13 13 13 13 13 12 12 14 15 16 17 18 18 17 16 16 15 16 17 17 17 16 16 15 14 13 12 12 13 14 16 18 18
18 17 16 17 17 18 16 14 14 14 13 12 12 12 13 15 17 17 18 19 20 20 19 19 18 18 17 18 18 18 18 17 16 15 14 14 13 14 15 15 16 17
18 18 17 17 17 17 15 15 16 16 14 13 12 13 16 18 19 19 20 20 20 20 19 19 18 17 16 15 15 15 15 15 15 14 14 14 13 13 14 14 15 15
20 19 18 18 18 16 15 16 17 16 14 13 12 15 18 19 20 20 20 20 19 18 17 16 15 15 14 13 12 13 13 13 12 11 11 12 12 12 12 12 12 13
20 19 17 16 16 15 16 17 16 15 14 13 13 17 19 20 21 21 20 18 16 16 15 14 13 13 12 12 11 12 13 11 9 8 10 11 10 9 10 10 10 11
20 18 17 16 15 14 16 17 15 15 14 12 13 17 19 20 20 20 19 17 15 14 13 12 11 11 12 11 10 12 14 11 6 5 8 10 8 7 7 7 7 8
21 19 17 17 15 13 15 16 15 14 13 11 13 17 18 19 19 18 17 15 13 12 11 11 10 10 11 9 8 12 14 12 8 6 7 9 8 7 6 5 6 8
20 17 15 15 15 14 14 14 13 12 10 9 12 16 18 18 18 17 16 13 12 10 9 9 9 10 10 7 8 12 12 11 9 6 8 10 8 6 6 5 6 8
18 17 14 13 13 15 16 15 12 9 7 8 11 15 18 17 16 16 14 12 10 8 7 8 8 9 10 7 7 8 8 7 7 5 6 7 8 9 8 7 6 5
19 18 17 15 15 16 18 16 12 9 7 9 11 14 17 17 14 14 14 12 10 9 8 9 10 10 11 11 9 7 5 5 4 4 4 5 7 9 9 8 6 6
18 18 19 18 17 16 15 12 12 11 11 12 12 14 16 16 13 12 14 13 12 12 12 13 13 13 12 12 10 8 6 5 4 4 5 6 7 9 9 9 9 9
17 17 18 19 19 16 13 13 14 15 15 15 15 14 15 16 14 13 15 15 14 14 15 16 16 15 13 12 10 8 6 4 5 7 7 8 9 10 11 11 12 12
15 16 16 18 19 18 17 17 19 19 18 18 16 14 14 16 16 15 16 17 16 17 17 17 17 16 15 13 11 9 6 5 7 9 9 9 9 9 10 11 12 11
15 17 17 16 18 19 20 22 23 21 21 20 18 17 16 17 19 18 18 19 19 19 18 17 16 15 15 14 12 9 6 5 7 7 5 4 5 7 7 9 11 10
14 16 16 15 17 18 20 22 23 23 24 22 20 21 21 21 22 21 20 20 21 20 19 17 15 14 13 14 12 9 6 6 6 5 3 5 7 8 8 8 9 10
9 10 11 13 16 17 18 20 21 23 26 24 23 25 24 22 23 23 22 21 21 21 20 18 16 14 13 13 13 10 8 8 8 7 7 8 9 9 9 9 9 9
7 9 10 11 13 13 15 20 22 22 23 23 24 26 25 23 22 23 22 21 21 21 21 20 17 15 13 14 13 12 10 10 10 10 10 10 11 11 11 11 10 9
6 7 8 9 11 12 15 21 25 24 23 23 23 24 24 23 21 21 21 21 21 21 20 19 16 14 13 14 14 12 12 12 12 12 12 11 11 11 11 11 10 9
6 6 7 8 9 12 17 22 26 27 26 25 23 21 23 23 22 20 20 21 21 20 18 17 16 16 15 13 13 14 14 14 13 12 12 10 9 10 10 10 9 8
6 6 7 8 9 12 14 17 23 25 26 25 23 20 22 23 23 22 21 21 21 19 18 18 18 17 15 15 16 16 15 14 14 14 13 11 10 11 11 11 10 8
7 8 9 9 8 10 12 13 17 21 21 21 20 20 20 20 19 19 20 20 20 18 17 17 16 15 16 17 17 17 15 15 15 15 14 12 11 9 9 10 10 9
6 6 8 9 8 7 8 10 12 14 15 15 16 17 18 16 16 16 16 16 15 15 15 14 14 16 17 18 17 17 16 17 17 15 13 11 9 8 7 7 8 8
12 8 6 7 7 6 6 7 7 8 9 10 11 11 12 14 15 15 15 15 15 14 13 13 14 16 16 16 17 17 17 18 18 16 13 11 9 9 8 7 6 6
13 11 8 6 6 6 6 6 6 6 7 8 9 8 9 11 13 13 14 15 14 12 12 13 13 14 15 15 16 17 19 18 17 17 16 14 13 12 10 9 7 6
Wind_Direction
182 181 177 173 169 168 170 171 171 170 168 165 161 159 157 155 154 147 140 141 145 147 144 141 138 130 119 118 120 119 121 120 117 122 129 133 140 141 137 137 135 129
178 183 182 176 168 166 169 172 174 173 168 162 161 162 160 154 147 140 137 137 139 143 145 145 140 128 119 117 116 115 115 115 115 119 127 128 132 135 135 140 142 139
179 185 183 176 168 165 170 174 173 171 168 165 166 164 155 146 141 137 137 135 134 133 135 134 128 119 114 112 110 109 109 109 110 113 119 121 122 121 123 136 146 146
180 183 179 175 170 168 173 175 171 172 175 173 169 159 149 144 142 140 139 134 130 129 128 125 121 117 113 111 110 110 109 107 108 108 108 108 109 110 112 125 141 149
178 179 177 175 173 174 178 176 174 180 184 179 168 157 152 149 146 143 141 138 134 133 131 128 125 121 118 118 117 115 113 113 113 113 111 107 106 107 107 111 120 133
174 176 176 177 178 179 181 179 180 188 190 181 167 160 159 154 148 146 146 145 141 136 134 132 129 126 124 124 120 115 113 110 106 108 112 112 111 108 107 110 112 116
174 174 175 180 183 183 181 182 187 192 191 184 169 164 164 158 153 152 152 151 146 140 138 137 134 132 131 127 120 114 109 103 95 93 105 112 112 110 110 117 117 113
174 174 176 181 184 185 183 185 190 194 195 190 173 170 169 163 159 158 159 158 153 149 146 142 139 136 135 132 127 125 118 115 120 112 112 114 111 113 115 114 114 117
178 177 177 178 178 178 183 188 193 197 202 196 178 176 175 170 166 165 164 164 162 158 154 150 144 139 138 134 132 136 133 136 150 148 130 124 117 115 113 112 116 114
182 179 177 180 176 167 173 186 195 201 209 204 188 185 181 176 174 172 169 169 168 164 156 151 143 138 142 141 137 145 150 154 162 165 150 142 144 150 142 145 144 120
193 192 187 186 181 172 173 182 191 200 218 224 204 192 187 182 179 179 175 170 168 163 152 148 145 142 148 157 159 160 166 168 166 171 166 157 162 173 171 167 173 159
204 205 198 193 188 182 180 182 184 190 221 236 218 201 192 185 186 187 177 168 169 169 166 168 172 170 167 172 184 190 198 202 197 197 201 199 191 191 194 191 191 198
215 217 211 208 200 191 192 198 196 196 218 228 218 210 199 187 189 193 179 173 180 184 189 191 191 193 190 187 191 196 204 224 245 245 239 240 229 219 222 221 214 213
214 216 216 217 215 216 231 232 210 203 219 221 213 215 208 192 192 198 186 182 190 197 204 205 203 208 211 208 207 205 205 228 258 264 268 267 255 244 242 238 226 220
199 201 205 211 215 222 233 224 207 205 212 212 206 210 212 199 197 203 197 192 197 207 215 216 215 219 221 220 219 213 207 229 258 272 278 270 253 239 235 226 216 214
203 204 207 214 217 218 217 213 211 210 205 201 198 201 207 206 204 206 205 203 206 212 220 224 224 223 223 225 223 212 207 230 256 272 280 241 210 199 199 201 201 202
210 212 213 213 212 213 214 216 218 213 205 206 206 201 202 208 209 210 210 210 213 218 225 232 232 230 230 228 223 219 223 237 242 234 177 150 157 163 166 171 179 185
212 213 209 199 199 208 216 217 216 208 205 213 215 207 204 208 211 212 212 213 217 222 229 236 239 241 239 230 226 229 232 227 215 196 172 155 147 147 150 153 161 170
196 201 203 195 196 206 212 213 213 208 207 213 214 210 209 212 214 216 217 218 221 225 232 239 242 242 239 233 234 235 222 204 194 184 173 163 157 157 158 159 160 165
151 167 183 186 186 187 192 203 210 210 207 207 208 209 211 213 216 219 221 223 225 229 233 236 237 240 242 240 235 224 201 188 186 183 178 172 170 173 173 169 167 172
127 144 157 159 164 171 181 193 201 204 204 204 205 208 211 213 214 218 224 228 230 233 235 236 240 246 245 232 213 197 185 182 184 184 185 184 184 189 193 194 192 196
109 127 139 142 150 165 178 189 195 200 204 207 209 212 218 222 222 222 227 231 233 235 238 240 242 239 225 203 191 185 180 182 187 189 193 197 197 195 197 198 199 206
106 119 119 121 139 162 175 184 192 198 204 210 214 218 224 228 226 221 222 229 233 234 234 232 225 212 198 189 187 187 186 188 195 198 198 198 197 192 188 188 192 204
80 119 125 119 121 142 160 174 189 198 203 209 215 220 221 220 215 212 212 216 216 210 207 204 197 191 190 190 191 190 187 189 196 201 200 197 194 189 183 183 189 201
73 81 105 113 109 115 137 155 170 184 191 193 196 200 201 198 196 195 191 188 190 191 190 189 190 191 190 189 191 190 185 187 196 203 206 210 213 208 195 184 183 193
94 92 94 104 113 126 143 146 145 155 164 170 172 170 171 182 188 186 181 182 188 194 191 186 186 187 182 180 183 183 182 188 201 206 207 213 220 217 203 192 194 203